TimeCDT,TemperatureF,Dew PointF,Humidity,Sea Level PressureIn,VisibilityMPH,Wind Direction,Wind SpeedMPH,Gust SpeedMPH,PrecipitationIn,Events,Conditions,WindDirDegrees,DateUTC
12:15 AM,41.2,24.3,51,30.19,10.0,East,6.9,-,N/A,,Clear,80,2012-10-28 05:15:00
12:55 AM,41.0,23.5,50,30.19,10.0,ENE,6.9,-,N/A,,Clear,70,2012-10-28 05:55:00
1:15 AM,40.3,23.5,51,30.19,10.0,ENE,4.6,-,N/A,,Clear,70,2012-10-28 06:15:00
1:35 AM,39.6,23.7,53,30.19,10.0,East,5.8,-,N/A,,Clear,80,2012-10-28 06:35:00
1:55 AM,39.2,23.7,54,30.19,10.0,East,5.8,-,N/A,,Clear,80,2012-10-28 06:55:00
2:15 AM,38.3,23.9,56,30.19,10.0,East,4.6,-,N/A,,Clear,100,2012-10-28 07:15:00
2:35 AM,37.8,23.9,57,30.19,10.0,East,3.5,-,N/A,,Clear,100,2012-10-28 07:35:00
2:55 AM,37.8,23.9,57,30.19,10.0,Calm,Calm,-,N/A,,Clear,0,2012-10-28 07:55:00
3:15 AM,37.9,24.4,58,30.19,10.0,Calm,Calm,-,N/A,,Clear,0,2012-10-28 08:15:00
3:35 AM,38.5,25.3,59,30.19,10.0,North,4.6,-,N/A,,Clear,10,2012-10-28 08:35:00
3:55 AM,38.3,25.7,61,30.19,10.0,North,5.8,-,N/A,,Clear,360,2012-10-28 08:55:00
4:15 AM,37.6,25.7,62,30.19,10.0,NE,5.8,-,N/A,,Clear,40,2012-10-28 09:15:00
4:35 AM,37.0,25.7,64,30.19,10.0,ENE,5.8,-,N/A,,Clear,60,2012-10-28 09:35:00
4:55 AM,36.7,25.9,65,30.19,10.0,ENE,3.5,-,N/A,,Clear,60,2012-10-28 09:55:00
5:15 AM,37.2,25.7,63,30.19,10.0,NNW,3.5,-,N/A,,Clear,330,2012-10-28 10:15:00
5:35 AM,35.1,25.3,68,30.19,10.0,North,3.5,-,N/A,,Clear,350,2012-10-28 10:35:00
5:55 AM,34.7,25.5,69,30.19,10.0,NNW,3.5,-,N/A,,Clear,340,2012-10-28 10:55:00
6:15 AM,34.2,25.5,71,30.20,10.0,NNW,4.6,-,N/A,,Clear,340,2012-10-28 11:15:00
6:35 AM,34.2,25.3,70,30.20,10.0,Calm,Calm,-,N/A,,Clear,0,2012-10-28 11:35:00
6:55 AM,35.1,25.9,69,30.21,10.0,NE,3.5,-,N/A,,Clear,40,2012-10-28 11:55:00
7:15 AM,35.2,25.7,68,30.22,10.0,NE,5.8,-,N/A,,Clear,50,2012-10-28 12:15:00
7:35 AM,35.1,26.1,70,30.22,10.0,NE,5.8,-,N/A,,Clear,50,2012-10-28 12:35:00
7:55 AM,34.3,26.2,72,30.22,10.0,NE,5.8,-,N/A,,Clear,40,2012-10-28 12:55:00
8:15 AM,34.3,26.4,73,30.23,10.0,NNE,5.8,-,N/A,,Clear,20,2012-10-28 13:15:00
8:35 AM,36.0,26.4,68,30.23,10.0,North,5.8,-,N/A,,Clear,360,2012-10-28 13:35:00
8:55 AM,36.9,26.4,66,30.24,10.0,North,3.5,-,N/A,,Clear,350,2012-10-28 13:55:00
9:15 AM,38.3,26.4,62,30.24,10.0,NNE,3.5,-,N/A,,Clear,20,2012-10-28 14:15:00
9:55 AM,40.6,27.3,59,30.25,10.0,NNE,4.6,-,N/A,,Clear,30,2012-10-28 14:55:00
10:15 AM,42.1,27.5,56,30.25,10.0,NNE,3.5,-,N/A,,Clear,20,2012-10-28 15:15:00
10:35 AM,44.1,27.5,52,30.25,10.0,NNE,3.5,-,N/A,,Clear,30,2012-10-28 15:35:00
10:55 AM,45.7,27.0,48,30.24,10.0,ESE,4.6,-,N/A,,Clear,120,2012-10-28 15:55:00
11:15 AM,47.1,25.9,44,30.25,10.0,Calm,Calm,-,N/A,,Clear,0,2012-10-28 16:15:00
11:35 AM,49.3,26.6,41,30.24,10.0,Calm,Calm,-,N/A,,Clear,0,2012-10-28 16:35:00
12:15 PM,50.2,26.8,40,30.24,10.0,Calm,Calm,-,N/A,,Clear,0,2012-10-28 17:15:00
12:35 PM,52.7,27.7,38,30.23,10.0,Calm,Calm,-,N/A,,Clear,0,2012-10-28 17:35:00
12:55 PM,55.2,28.2,36,30.23,10.0,ENE,3.5,-,N/A,,Clear,70,2012-10-28 17:55:00
1:15 PM,56.7,28.6,34,30.21,10.0,East,5.8,-,N/A,,Clear,100,2012-10-28 18:15:00
1:35 PM,58.5,28.6,32,30.19,10.0,ESE,5.8,-,N/A,,Clear,120,2012-10-28 18:35:00
1:55 PM,60.1,29.5,31,30.19,10.0,Calm,Calm,-,N/A,,Clear,0,2012-10-28 18:55:00
2:15 PM,61.2,29.7,30,30.17,10.0,Calm,Calm,-,N/A,,Clear,0,2012-10-28 19:15:00
2:35 PM,62.6,30.7,30,30.16,10.0,ESE,3.5,-,N/A,,Clear,120,2012-10-28 19:35:00
2:55 PM,64.4,31.8,30,30.15,10.0,ENE,5.8,-,N/A,,Clear,70,2012-10-28 19:55:00
3:15 PM,64.8,31.8,29,30.14,10.0,ESE,4.6,-,N/A,,Clear,110,2012-10-28 20:15:00
3:35 PM,66.4,32.4,28,30.13,10.0,East,8.1,-,N/A,,Clear,90,2012-10-28 20:35:00
3:55 PM,66.4,32.5,28,30.12,10.0,East,4.6,-,N/A,,Clear,80,2012-10-28 20:55:00
4:15 PM,67.1,32.7,28,30.12,10.0,East,8.1,-,N/A,,Clear,100,2012-10-28 21:15:00
4:35 PM,67.5,33.1,28,30.11,10.0,East,8.1,-,N/A,,Clear,80,2012-10-28 21:35:00
4:55 PM,67.8,32.9,27,30.11,10.0,ESE,6.9,-,N/A,,Clear,110,2012-10-28 21:55:00
5:15 PM,68.4,32.5,27,30.10,10.0,East,6.9,-,N/A,,Clear,100,2012-10-28 22:15:00
5:35 PM,68.7,33.4,27,30.10,10.0,East,8.1,-,N/A,,Clear,100,2012-10-28 22:35:00
5:55 PM,68.4,33.4,27,30.10,10.0,East,8.1,-,N/A,,Clear,90,2012-10-28 22:55:00
6:15 PM,67.6,33.1,28,30.10,10.0,East,8.1,-,N/A,,Clear,100,2012-10-28 23:15:00
6:35 PM,66.6,33.3,29,30.09,10.0,East,8.1,-,N/A,,Clear,90,2012-10-28 23:35:00
6:55 PM,64.0,34.0,33,30.09,10.0,East,6.9,-,N/A,,Clear,90,2012-10-28 23:55:00
7:15 PM,60.4,34.0,37,30.09,10.0,East,6.9,-,N/A,,Clear,90,2012-10-29 00:15:00
7:35 PM,58.5,33.8,39,30.10,10.0,East,6.9,-,N/A,,Clear,90,2012-10-29 00:35:00
7:55 PM,56.8,33.8,42,30.10,10.0,East,6.9,-,N/A,,Clear,80,2012-10-29 00:55:00
8:15 PM,56.3,34.2,43,30.10,10.0,ENE,5.8,-,N/A,,Clear,70,2012-10-29 01:15:00
8:35 PM,54.9,34.7,47,30.11,10.0,ENE,8.1,-,N/A,,Clear,70,2012-10-29 01:35:00
8:55 PM,54.5,34.9,48,30.11,10.0,ENE,8.1,-,N/A,,Clear,70,2012-10-29 01:55:00
9:15 PM,53.8,35.6,50,30.11,10.0,ENE,8.1,-,N/A,,Clear,60,2012-10-29 02:15:00
9:35 PM,52.5,35.6,53,30.11,10.0,ENE,8.1,-,N/A,,Clear,60,2012-10-29 02:35:00
9:55 PM,51.3,35.6,55,30.12,10.0,ENE,6.9,-,N/A,,Clear,60,2012-10-29 02:55:00
10:35 PM,49.5,35.2,58,30.12,10.0,East,6.9,-,N/A,,Clear,80,2012-10-29 03:35:00
10:55 PM,48.2,35.1,60,30.12,10.0,ENE,4.6,-,N/A,,Clear,70,2012-10-29 03:55:00
11:15 PM,48.2,35.1,60,30.13,10.0,ENE,5.8,-,N/A,,Clear,70,2012-10-29 04:15:00
11:55 PM,47.1,34.7,62,30.13,10.0,NE,6.9,-,N/A,,Clear,50,2012-10-29 04:55:00